[[{"header":{"parameterUnit":"m.s-1","parameterCategory":2,"la1":30.2991,"la2":30.254,"lo1":-89.0895,"lo2":-89.0444,"dy":0.0017,"dx":0.0017,"nx":28,"ny":28,"refTime":"2023-10-27T09:00:00:Z","depth":"0","parameterNumber":2,"parameterNumberName":"U-component_of_CURRENTS"},"data":[0,0,0,0,0,0,0,0,0,0,0,0,0,0,0,0,0,0,0,0,0,0,0,0,0,0,0,0,0,0,0,0,0,0,0,0,0,0,0,0,0,0,0,0,0,0,0,0,0,0,0,0,0,0,0,0,0,0,0.3137,0.3137,0,0.314,0.314,0.3141,0.316,0.316,0.316,0.316,0.3214,0.3215,0.3216,0,0,0,0,0,0,0,0,0,0,0,0,0,0.3245,0.3242,0.3137,0.3137,0.3137,0.314,0.314,0.3141,0.316,0.316,0.316,0.316,0.3213,0.3215,0.3217,0,0,0,0,0,0,0,0,0,0,0,0,0,0.3221,0.3242,0.3137,0.3144,0.3144,0.314,0.314,0.3141,0.316,0.316,0.316,0.316,0.3213,0.3215,0.3217,0.3225,0,0,0.3223,0.3224,0,0,0,0,0,0,0,0,0.3222,0.3218,0.3143,0.3143,0.3144,0.3146,0.3198,0.317,0.316,0.3158,0.316,0.316,0.3193,0.3197,0.3202,0.3228,0.323,0.3223,0.3224,0.3225,0.3226,0,0,0,0,0,0,0,0.3224,0.3218,0.3142,0.3143,0.3143,0.3179,0.3175,0.3193,0.3178,0.3158,0.3158,0.3153,0.3194,0.32,0.3203,0.3231,0.3223,0.3225,0.3226,0.3227,0.3303,0.3304,0,0,0,0,0,0,0.321,0.3219,0.3142,0.3142,0.318,0.3176,0.3173,0.3148,0.3177,0.318,0.3152,0.3153,0.3196,0.3201,0.3205,0.3261,0.3225,0.3227,0.3228,0.3302,0.3303,0.3304,0,0,0,0,0,0,0.3212,0.3202,0.3142,0.3179,0.3173,0.3173,0.3147,0.3148,0.3154,0.3172,0.3177,0.3156,0.3197,0.3202,0.3226,0.3261,0.3228,0.323,0.3301,0.3302,0.3303,0.3344,0,0,0,0,0,0,0.3215,0.3203,0.3193,0.3177,0.317,0.3134,0.3146,0.3148,0.3148,0.315,0.3177,0.3182,0.3197,0.3223,0.3228,0.3264,0.3231,0.33,0.3302,0.3303,0.3342,0.3347,0.3351,0,0,0,0,0,0.3218,0.3186,0.3192,0.3184,0.3152,0.3134,0.3134,0.3139,0.3148,0.3147,0.3171,0.3181,0.3237,0.3224,0.323,0.3268,0.3299,0.3301,0.3303,0.334,0.3346,0.3351,0,0,0,0,0,0,0.3225,0.3185,0.319,0.3148,0.3145,0.3135,0.3128,0.3138,0.3156,0.3159,0.3186,0.3192,0.3235,0.3235,0.3221,0.3293,0.3272,0.3275,0.3298,0.3304,0.3308,0.3306,0.3233,0,0,0,0,0,0.3222,0.3198,0.3171,0.315,0.3133,0.3136,0.3134,0.3136,0.3143,0.315,0.3182,0.3211,0.3247,0.3259,0.3289,0.3315,0.3321,0.3344,0.3349,0.3353,0.3354,0.3406,0.3416,0.331,0.331,0.331,0,0,0.3227,0.32,0.3191,0.3153,0.3145,0.3124,0.3135,0.312,0.3137,0.3154,0.3195,0.3231,0.3259,0.3303,0.3321,0.3305,0.3381,0.3355,0.3358,0.3357,0.3409,0.3419,0.3429,0.3311,0.3311,0.3311,0,0,0.3197,0.3188,0.3144,0.3134,0.311,0.3121,0.3115,0.3113,0.3142,0.3173,0.3209,0.3259,0.3298,0.3341,0.3362,0.3403,0.341,0.3414,0.3431,0.3482,0.3491,0.3499,0.3499,0.3507,0.3409,0.3409,0.3409,0,0.3206,0.3143,0.3136,0.3088,0.3087,0.3115,0.3084,0.3117,0.3143,0.3185,0.3187,0.3293,0.3321,0.3391,0.3412,0.3418,0.3426,0.341,0.3489,0.3498,0.3505,0.3503,0.3512,0.3411,0.3411,0.3411,0.3411,0,0.3146,0.3096,0.3069,0.3032,0.3036,0.3018,0.3049,0.309,0.314,0.3188,0.3278,0.3326,0.3387,0.3416,0.3427,0.3507,0.3487,0.3497,0.3477,0.3519,0.3513,0.3521,0.3414,0.3414,0.3413,0.3412,0,0,0.3157,0.3046,0.304,0.3003,0.3007,0.2998,0.3049,0.3104,0.3151,0.3225,0.3292,0.3384,0.3431,0.3457,0.3494,0.3541,0.3605,0.3541,0.3542,0.3542,0.3684,0.3551,0.3546,0.3634,0.3637,0.3638,0.365,0,0.3116,0.2998,0.2986,0.2936,0.2878,0.2943,0.2992,0.3065,0.3148,0.3231,0.3331,0.3405,0.3441,0.3474,0.3535,0.3592,0.3631,0.3598,0.3642,0.3642,0.3521,0.3554,0.3413,0.3402,0.3658,0.3659,0.366,0,0.3069,0.2986,0.2896,0.286,0.2851,0.286,0.2956,0.3004,0.3145,0.3216,0.3323,0.3399,0.3502,0.3515,0.3636,0.3613,0.3652,0.3688,0.3689,0.3557,0.3525,0.3405,0.3406,0.3322,0.3672,0.3671,0.367,0,0.3061,0.2948,0.2876,0.286,0.2823,0.2844,0.2881,0.3001,0.3062,0.321,0.3263,0.3404,0.3463,0.3555,0.3639,0.3644,0.3746,0.3758,0.3671,0.3661,0.3543,0.3517,0.3468,0.384,0.384,0.384,0.384,0,0.3031,0.2974,0.2853,0.281,0.2776,0.2794,0.2836,0.2911,0.3024,0.3102,0.3244,0.3317,0.3481,0.3564,0.3636,0.3662,0.3745,0.3672,0.3664,0.3547,0.3523,0.3444,0.3404,0.384,0.384,0.384,0.384,0,0.3032,0.2952,0.2837,0.2756,0.275,0.2727,0.2778,0.282,0.2934,0.3033,0.3079,0.326,0.3365,0.3485,0.3623,0.3627,0.356,0.3673,0.3494,0.3463,0.326,0.3227,0.3027,0.2937,0.3561,0.3558,0.3556,0,0.3015,0.2944,0.2791,0.2725,0.2683,0.2664,0.2678,0.2775,0.2827,0.2997,0.3037,0.3172,0.3273,0.3386,0.3434,0.3492,0.344,0.3362,0.3346,0.3217,0.3178,0.3061,0.2994,0.3206,0.3201,0.3197,0.3193,0,0.2976,0.2915,0.2813,0.2658,0.2607,0.258,0.2603,0.263,0.2767,0.284,0.2959,0.3047,0.3164,0.317,0.3215,0.3241,0.3153,0.3269,0.3213,0.2944,0.2739,0.2658,0.3204,0.3155,0.3159,0.3161,0.3163,0.3165,0.2954,0.2861,0.2711,0.2566,0.2513,0.2486,0.2457,0.2513,0.2566,0.2654,0.2815,0.2878,0.2945,0.2992,0.298,0.2847,0.2874,0.2778,0.2764,0.2669,0.2521,0.2937,0.2828,0.283,0.2831,0.2833,0.2834,0,0.2885,0.2782,0.2642,0.2453,0.2364,0.2379,0.2389,0.2359,0.2367,0.2496,0.2575,0.2618,0.2588,0.2618,0.253,0.2395,0.2313,0.2314,0.2166,0.2143,0.2594,0.2519,0.2243,0.2243,0.2243,0.2243,0.2243,0.2243,0.2838,0.2673,0.2558,0.2327,0.2235,0.2131,0.2115,0.2104,0.2155,0.2168,0.2187,0.2254,0.2319,0.2239,0.2096,0.2049,0.1902,0.1754,0.1782,0.2161,0.2205,0.2248,0.217,0.1826,0.1825,0.1254,0.1249,0.1246]},{"header":{"parameterUnit":"m.s-1","parameterCategory":2,"la1":30.2991,"la2":30.254,"lo1":-89.0895,"lo2":-89.0444,"dy":0.0017,"dx":0.0017,"nx":28,"ny":28,"refTime":"2023-10-27T09:00:00:Z","depth":"0","parameterNumber":3,"parameterNumberName":"V-component_of_CURRENTS"},"data":[0,0,0,0,0,0,0,0,0,0,0,0,0,0,0,0,0,0,0,0,0,0,0,0,0,0,0,0,0,0,0,0,0,0,0,0,0,0,0,0,0,0,0,0,0,0,0,0,0,0,0,0,0,0,0,0,0,0,0.0104,0.0104,0,0.0037,0.0035,0.0034,-0.0034,-0.0034,-0.0034,-0.0035,-0.017,-0.0173,-0.0176,0,0,0,0,0,0,0,0,0,0,0,0,0,0.0067,0.0068,0.0104,0.0104,0.0103,0.0037,0.0035,0.0034,-0.0034,-0.0034,-0.0034,-0.0035,-0.0169,-0.0173,-0.0177,0,0,0,0,0,0,0,0,0,0,0,0,0,0.0044,0.0068,0.0104,0.0066,0.0062,0.0037,0.0035,0.0033,-0.0034,-0.0034,-0.0035,-0.0035,-0.0167,-0.0172,-0.0177,-0.0197,0,0,-0.0192,-0.0194,0,0,0,0,0,0,0,0,0.0046,0.0045,0.0072,0.0069,0.0065,0.0015,-0.0027,-0.0045,-0.0033,-0.0004,-0.0035,-0.0035,-0.011,-0.012,-0.0139,-0.0203,-0.0209,-0.0192,-0.0195,-0.0198,-0.0199,0,0,0,0,0,0,0,0.0047,0.0047,0.0071,0.0072,0.0067,0.0016,0.0013,-0.0031,-0.0059,-0.0006,-0.001,-0.0007,-0.0113,-0.0134,-0.0143,-0.0211,-0.0192,-0.0197,-0.02,-0.0202,-0.0307,-0.0307,0,0,0,0,0,0,0.0075,0.0049,0.0073,0.007,0.0061,0.0018,0.0014,0.0026,-0.0057,-0.0068,-0.0007,-0.001,-0.0125,-0.0137,-0.0148,-0.0167,-0.0197,-0.0202,-0.0205,-0.0307,-0.0307,-0.0307,0,0,0,0,0,0,0.0074,0.0078,0.0076,0.0062,0.0059,0.0021,0.0034,0.0025,0.0011,-0.0056,-0.0069,-0.001,-0.0126,-0.0141,-0.0178,-0.0173,-0.0204,-0.0209,-0.0307,-0.0307,-0.0307,-0.0212,0,0,0,0,0,0,0.0074,0.0078,0.0092,0.0064,0.0061,0.0072,0.0035,0.0025,0.0016,0.0011,-0.0063,-0.0076,-0.0128,-0.017,-0.0183,-0.0181,-0.0213,-0.0307,-0.0307,-0.0307,-0.0215,-0.0209,-0.0203,0,0,0,0,0,0.0073,0.0102,0.0093,0.0096,0.0083,0.0073,0.0066,0.0032,0.0017,0.0016,-0.0032,-0.0074,-0.0178,-0.0173,-0.0188,-0.0188,-0.0308,-0.0307,-0.0307,-0.0218,-0.021,-0.0203,0,0,0,0,0,0,0.0083,0.0098,0.0087,0.0116,0.01,0.0064,0.007,0.0044,0.0004,0.0003,-0.0069,-0.0085,-0.0119,-0.0164,-0.0158,-0.0219,-0.0251,-0.0254,-0.0178,-0.0171,-0.0165,-0.0124,-0.0217,0,0,0,0,0,0.0098,0.0125,0.0116,0.0134,0.0141,0.0107,0.0099,0.0077,0.0044,0.0026,-0.0027,-0.0083,-0.0131,-0.0157,-0.0207,-0.0235,-0.0249,-0.0246,-0.024,-0.0234,-0.0212,-0.0231,-0.0223,-0.0306,-0.0306,-0.0306,0,0,0.0099,0.0117,0.0126,0.0139,0.013,0.0141,0.01,0.0103,0.0099,0.0018,-0.0004,-0.0062,-0.0133,-0.0167,-0.0187,-0.0203,-0.0217,-0.0234,-0.0228,-0.0209,-0.023,-0.0221,-0.0214,-0.0306,-0.0306,-0.0306,0,0,0.0136,0.0145,0.0187,0.0187,0.0194,0.0172,0.0181,0.0153,0.0133,0.0104,0.0045,0.0003,-0.0077,-0.0121,-0.0156,-0.0143,-0.0183,-0.017,-0.0105,-0.0124,-0.0117,-0.0111,-0.0103,-0.0097,-0.0167,-0.0167,-0.0167,0,0.0135,0.0193,0.019,0.023,0.0235,0.0196,0.0225,0.02,0.0154,0.0145,0.0111,0.0012,-0.0052,-0.0084,-0.0086,-0.0126,-0.0134,-0.0126,-0.0113,-0.0107,-0.0102,-0.0097,-0.0091,-0.0162,-0.0163,-0.0163,-0.0164,0,0.0202,0.0244,0.0271,0.0309,0.0308,0.0328,0.0304,0.0293,0.026,0.0226,0.0189,0.0105,0.005,0.0014,-0.0035,-0.0038,-0.0052,-0.01,-0.0123,-0.0088,-0.0085,-0.0081,-0.0156,-0.0157,-0.0159,-0.016,0,0,0.02,0.0302,0.0306,0.0346,0.0355,0.0362,0.0368,0.0362,0.0375,0.0311,0.0317,0.0222,0.0181,0.0141,0.0071,0.0049,0.0069,-0.0002,-0.0005,0.0023,0.0054,0.0042,0.0045,0.0024,0.0025,0.0026,0.0049,0,0.0248,0.0359,0.0376,0.0439,0.0492,0.0463,0.0472,0.0455,0.0426,0.0419,0.0342,0.0309,0.0227,0.0202,0.0171,0.0091,0.0082,0.0069,0.0,-0.0001,-0.0002,0.0049,0.0091,0.0114,0.0052,0.0053,0.0053,0,0.0295,0.0375,0.0475,0.0539,0.0555,0.057,0.0587,0.059,0.0568,0.0547,0.051,0.0443,0.0399,0.032,0.0239,0.0235,0.0165,0.0104,0.0102,0.0064,-0.0005,0.0062,0.0123,0.0053,0.0059,0.0059,0.0058,0,0.0321,0.0421,0.0513,0.0536,0.0607,0.0629,0.0639,0.0632,0.0651,0.0634,0.0645,0.0571,0.0542,0.0447,0.0312,0.028,0.0232,0.0164,0.0095,0.0094,0.0104,0.0102,0.0104,0.0124,0.0124,0.0124,0.0124,0,0.0366,0.0426,0.054,0.0598,0.0676,0.0688,0.0747,0.0746,0.0763,0.0808,0.072,0.0739,0.0571,0.0508,0.0378,0.0268,0.0284,0.0136,0.0104,0.0137,0.0138,0.0054,-0.0016,0.0125,0.0125,0.0125,0.0124,0,0.0375,0.0457,0.0576,0.0685,0.0709,0.0763,0.0822,0.0862,0.0872,0.0934,0.0933,0.0876,0.0802,0.064,0.0493,0.0364,0.0204,0.0195,0.026,0.0235,0.0091,0.0024,-0.0009,-0.0052,0.0138,0.0138,0.0137,0,0.0395,0.0469,0.0642,0.0711,0.0764,0.0839,0.0888,0.0915,0.0969,0.1026,0.1067,0.1014,0.1001,0.0794,0.0559,0.0362,0.0235,0.0246,0.0178,0.012,0.0022,-0.0018,-0.0056,0.0237,0.0237,0.0238,0.0238,0,0.043,0.0505,0.0626,0.0779,0.0864,0.0949,0.1026,0.1087,0.1139,0.1209,0.129,0.129,0.1102,0.0929,0.064,0.0477,0.0208,0.0251,0.0174,0.0099,0.0076,0.0006,0.0196,0.0244,0.0243,0.0243,0.0243,0.0242,0.0452,0.0552,0.0723,0.085,0.0949,0.1055,0.1128,0.1225,0.1343,0.1458,0.1459,0.1507,0.1253,0.0874,0.0651,0.0286,0.0246,0.017,0.0098,0.0068,0.0016,0.0231,0.0239,0.0239,0.0238,0.0238,0.0237,0,0.0488,0.0615,0.0758,0.0938,0.1035,0.1075,0.1216,0.1304,0.1462,0.1581,0.1663,0.1603,0.1295,0.0938,0.0447,0.0195,0.009,0.0051,0.0014,-0.002,0.0173,0.0167,0.0181,0.0181,0.0181,0.0181,0.0181,0.0181,0.0526,0.069,0.0789,0.0976,0.1072,0.1203,0.1289,0.1437,0.156,0.1721,0.1781,0.1795,0.1562,0.075,0.0212,0.0062,-0.0108,-0.0138,-0.0246,-0.0107,-0.0101,-0.0095,-0.0115,-0.016,-0.016,-0.0376,-0.0378,-0.038]}],[{"header":{"parameterUnit":"m.s-1","parameterCategory":2,"la1":30.2991,"la2":30.254,"lo1":-89.0895,"lo2":-89.0444,"dy":0.0017,"dx":0.0017,"nx":28,"ny":28,"refTime":"2023-10-27T09:00:00:Z","depth":"2","parameterNumber":2,"parameterNumberName":"U-component_of_CURRENTS"},"data":[0,0,0,0,0,0,0,0,0,0,0,0,0,0,0,0,0,0,0,0,0,0,0,0,0,0,0,0,0,0,0,0,0,0,0,0,0,0,0,0,0,0,0,0,0,0,0,0,0,0,0,0,0,0,0,0,0,0,0.2508,0.2508,0,0.2523,0.2523,0.2523,0.2502,0.2502,0.2501,0.2501,0.2515,0.2516,0.2517,0,0,0,0,0,0,0,0,0,0,0,0,0,0.2473,0.2474,0.2508,0.2508,0.2509,0.2523,0.2523,0.2523,0.2502,0.2501,0.2501,0.25,0.2515,0.2516,0.2517,0,0,0,0,0,0,0,0,0,0,0,0,0,0.2485,0.2474,0.2508,0.2503,0.2503,0.2523,0.2523,0.2523,0.2502,0.2501,0.2501,0.25,0.2514,0.2516,0.2517,0.2537,0,0,0.252,0.2521,0,0,0,0,0,0,0,0,0.2484,0.2486,0.2503,0.2503,0.2503,0.2513,0.2517,0.2529,0.2502,0.2499,0.2501,0.25,0.2517,0.2518,0.2517,0.2537,0.2538,0.252,0.2521,0.2522,0.2522,0,0,0,0,0,0,0,0.2484,0.2485,0.251,0.2504,0.2504,0.2505,0.2505,0.2518,0.2508,0.2499,0.2498,0.2506,0.2517,0.2516,0.2518,0.2538,0.252,0.2521,0.2522,0.2523,0.2571,0.2572,0,0,0,0,0,0,0.2489,0.2484,0.251,0.2511,0.2496,0.2506,0.2506,0.2508,0.2508,0.2509,0.2506,0.2505,0.2514,0.2516,0.2518,0.2566,0.2522,0.2523,0.2523,0.2571,0.2571,0.2572,0,0,0,0,0,0,0.2488,0.2491,0.2509,0.2501,0.2504,0.2508,0.2509,0.2508,0.252,0.2515,0.2514,0.252,0.2514,0.2516,0.2541,0.2566,0.2523,0.2524,0.257,0.2571,0.2572,0.2647,0,0,0,0,0,0,0.2487,0.249,0.2495,0.2501,0.2505,0.2528,0.251,0.2509,0.2526,0.2525,0.2527,0.2526,0.2514,0.2539,0.2542,0.2567,0.2525,0.2569,0.257,0.2571,0.2644,0.2651,0.2656,0,0,0,0,0,0.2485,0.2489,0.2495,0.2499,0.2511,0.2529,0.2531,0.2528,0.2528,0.2535,0.2539,0.2527,0.2547,0.2541,0.2544,0.257,0.2569,0.257,0.2571,0.2641,0.2649,0.2656,0,0,0,0,0,0,0.2471,0.2489,0.2494,0.2502,0.2521,0.2527,0.2538,0.2542,0.2551,0.2553,0.2545,0.2545,0.2578,0.256,0.2553,0.2583,0.2552,0.2554,0.2604,0.2612,0.2618,0.2613,0.2526,0,0,0,0,0,0.2474,0.2483,0.2504,0.2511,0.2526,0.2539,0.2548,0.255,0.256,0.2564,0.2566,0.2568,0.2584,0.2587,0.2595,0.2616,0.2611,0.2629,0.2635,0.2641,0.2637,0.2674,0.2684,0.2576,0.2576,0.2576,0,0,0.2467,0.2483,0.2485,0.251,0.2526,0.2543,0.2542,0.2564,0.2574,0.2566,0.2584,0.26,0.2597,0.2622,0.2632,0.261,0.2665,0.2642,0.2647,0.264,0.2677,0.2688,0.2697,0.2577,0.2577,0.2577,0,0,0.2463,0.2481,0.2491,0.2512,0.2546,0.2555,0.2568,0.2588,0.2596,0.2623,0.2623,0.2653,0.2664,0.267,0.2674,0.2718,0.2706,0.2718,0.274,0.2778,0.2788,0.2796,0.2796,0.2803,0.2711,0.2711,0.2711,0,0.246,0.2473,0.2497,0.2519,0.2538,0.2565,0.2583,0.2597,0.2619,0.2637,0.2634,0.2684,0.2686,0.2725,0.2735,0.2734,0.2741,0.2718,0.2789,0.2797,0.2804,0.2802,0.2809,0.2715,0.2715,0.2714,0.2714,0,0.2457,0.2482,0.2496,0.253,0.2552,0.2576,0.2605,0.2629,0.2651,0.2668,0.2723,0.2738,0.2764,0.2774,0.2769,0.2822,0.2806,0.2805,0.2776,0.282,0.2813,0.282,0.2721,0.2719,0.2718,0.2717,0,0,0.2421,0.2482,0.2489,0.2511,0.2563,0.2575,0.2614,0.2655,0.2682,0.272,0.2758,0.2803,0.2825,0.283,0.2841,0.2867,0.2926,0.2858,0.2858,0.2866,0.2991,0.2919,0.2918,0.2951,0.2952,0.2954,0.2963,0,0.2419,0.2457,0.2488,0.2522,0.2548,0.2593,0.2623,0.2663,0.2703,0.2743,0.2791,0.283,0.2842,0.2865,0.2902,0.2924,0.2948,0.2921,0.2937,0.2936,0.2876,0.2926,0.2689,0.2672,0.2969,0.297,0.2971,0,0.2402,0.2437,0.2472,0.253,0.2545,0.2565,0.2625,0.2656,0.2728,0.2764,0.2829,0.2862,0.292,0.2917,0.299,0.2978,0.2988,0.2998,0.2999,0.2908,0.2877,0.2676,0.2673,0.2981,0.2981,0.298,0.2979,0,0.2356,0.242,0.2448,0.2468,0.2537,0.2561,0.2595,0.2665,0.27,0.278,0.282,0.2896,0.294,0.2982,0.302,0.3011,0.3085,0.3071,0.3012,0.3005,0.279,0.2762,0.3117,0.3117,0.3117,0.3117,0.3117,0,0.2334,0.2359,0.243,0.2445,0.2477,0.2533,0.2573,0.2625,0.27,0.2747,0.2828,0.2879,0.2966,0.302,0.3034,0.3048,0.3103,0.302,0.3013,0.2807,0.2782,0.3037,0.3028,0.3117,0.3117,0.3117,0.3117,0,0.2282,0.2331,0.2368,0.244,0.2458,0.2481,0.2551,0.258,0.2667,0.2732,0.2762,0.2881,0.2954,0.3016,0.3081,0.3061,0.3075,0.3062,0.2799,0.2762,0.2957,0.2951,0.2982,0.2979,0.2978,0.2976,0.2975,0,0.2257,0.2273,0.2347,0.2364,0.2398,0.2439,0.2465,0.2552,0.2589,0.2728,0.2751,0.2859,0.2911,0.2978,0.2962,0.2962,0.3044,0.2734,0.2673,0.2957,0.2948,0.2945,0.2942,0.2409,0.2403,0.2398,0.2395,0,0.2212,0.2246,0.2279,0.2316,0.2344,0.2368,0.2416,0.2441,0.2549,0.2602,0.2685,0.2738,0.2817,0.2715,0.273,0.2701,0.2714,0.2636,0.3014,0.2489,0.2421,0.2411,0.2426,0.2352,0.2356,0.2359,0.2362,0.2363,0.2178,0.219,0.2234,0.2258,0.2282,0.2287,0.2269,0.2324,0.2357,0.2407,0.2535,0.2523,0.2548,0.2445,0.2366,0.2304,0.2497,0.2372,0.2385,0.2404,0.2345,0.2279,0.2169,0.2172,0.2175,0.2177,0.218,0,0.212,0.2143,0.2166,0.2178,0.2154,0.2201,0.2217,0.2174,0.2158,0.2231,0.2262,0.2084,0.2006,0.2031,0.1868,0.1862,0.1833,0.1782,0.1717,0.1762,0.1801,0.171,0.1366,0.1364,0.1361,0.1359,0,0,0.2093,0.2091,0.2101,0.2044,0.2042,0.1974,0.1958,0.1916,0.1924,0.1869,0.1829,0.1949,0.1994,0.1663,0.1611,0.1459,0.1603,0.1402,0.206,0.2031,0.2067,0.2151,0.2063,0,0,0,0,0]},{"header":{"parameterUnit":"m.s-1","parameterCategory":2,"la1":30.2991,"la2":30.254,"lo1":-89.0895,"lo2":-89.0444,"dy":0.0017,"dx":0.0017,"nx":28,"ny":28,"refTime":"2023-10-27T09:00:00:Z","depth":"2","parameterNumber":3,"parameterNumberName":"V-component_of_CURRENTS"},"data":[0,0,0,0,0,0,0,0,0,0,0,0,0,0,0,0,0,0,0,0,0,0,0,0,0,0,0,0,0,0,0,0,0,0,0,0,0,0,0,0,0,0,0,0,0,0,0,0,0,0,0,0,0,0,0,0,0,0,0.0318,0.0317,0,0.0256,0.0256,0.0255,0.0227,0.0227,0.0227,0.0228,0.0192,0.0191,0.019,0,0,0,0,0,0,0,0,0,0,0,0,0,0.0346,0.0346,0.0318,0.0317,0.0316,0.0256,0.0256,0.0255,0.0227,0.0227,0.0227,0.0228,0.0192,0.0191,0.019,0,0,0,0,0,0,0,0,0,0,0,0,0,0.0314,0.0346,0.0318,0.0295,0.0293,0.0257,0.0256,0.0255,0.0227,0.0227,0.0227,0.0228,0.0193,0.0191,0.019,0.0179,0,0,0.0185,0.0185,0,0,0,0,0,0,0,0,0.0316,0.0313,0.0299,0.0297,0.0294,0.0249,0.0252,0.023,0.0227,0.0252,0.0228,0.0228,0.0213,0.021,0.0198,0.0177,0.0176,0.0185,0.0184,0.0184,0.0183,0,0,0,0,0,0,0,0.0319,0.0315,0.0294,0.0299,0.0295,0.0265,0.0262,0.0248,0.0234,0.025,0.0248,0.0241,0.0212,0.02,0.0197,0.0175,0.0185,0.0184,0.0183,0.0182,0.0157,0.0158,0,0,0,0,0,0,0.0329,0.0318,0.0296,0.0292,0.0305,0.0265,0.0261,0.0264,0.0233,0.0228,0.0241,0.024,0.0202,0.0199,0.0196,0.0202,0.0184,0.0182,0.0181,0.0157,0.0157,0.0158,0,0,0,0,0,0,0.033,0.0328,0.0298,0.0303,0.0297,0.0265,0.0268,0.0262,0.0254,0.0226,0.0222,0.0239,0.0202,0.0198,0.0189,0.02,0.0182,0.018,0.0157,0.0157,0.0158,0.02,0,0,0,0,0,0,0.0331,0.0329,0.0335,0.0304,0.0297,0.0285,0.0268,0.0261,0.0249,0.0247,0.0223,0.0219,0.0202,0.0192,0.0188,0.0197,0.0179,0.0157,0.0157,0.0157,0.0199,0.0202,0.0205,0,0,0,0,0,0.0333,0.0344,0.0336,0.0333,0.0307,0.0285,0.0279,0.0256,0.0249,0.0249,0.0232,0.022,0.0192,0.0191,0.0186,0.0195,0.0156,0.0157,0.0157,0.0197,0.0201,0.0205,0,0,0,0,0,0,0.0355,0.0341,0.0332,0.0337,0.0316,0.0281,0.0278,0.0261,0.0246,0.0247,0.0221,0.0217,0.021,0.0197,0.0196,0.0189,0.0173,0.0172,0.0204,0.0208,0.0211,0.0231,0.0178,0,0,0,0,0,0.0364,0.0372,0.0346,0.0349,0.0342,0.0311,0.0299,0.0284,0.0264,0.0257,0.0239,0.0222,0.0207,0.0204,0.0186,0.0185,0.0167,0.0188,0.0191,0.0194,0.0207,0.0181,0.0184,0.0159,0.0159,0.0159,0,0,0.0374,0.0366,0.037,0.0355,0.0337,0.0333,0.0305,0.0293,0.0294,0.0257,0.0257,0.023,0.0207,0.0202,0.0199,0.0196,0.019,0.0195,0.0198,0.0209,0.0182,0.0185,0.0187,0.016,0.016,0.016,0,0,0.0394,0.039,0.0402,0.039,0.0368,0.0351,0.0351,0.0322,0.0316,0.0306,0.028,0.0264,0.0242,0.0228,0.0219,0.0231,0.0203,0.0223,0.0262,0.0237,0.0239,0.024,0.0217,0.0216,0.023,0.0231,0.0231,0,0.0402,0.0418,0.04,0.0403,0.04,0.0365,0.0373,0.036,0.0332,0.0334,0.0316,0.028,0.0257,0.0255,0.0257,0.024,0.0219,0.0249,0.0242,0.0243,0.0244,0.0219,0.0218,0.0233,0.0232,0.0232,0.0232,0,0.0433,0.0441,0.0446,0.0446,0.0438,0.044,0.042,0.0418,0.0403,0.0386,0.0377,0.0338,0.0322,0.0306,0.0285,0.0282,0.0263,0.0243,0.0234,0.0249,0.0222,0.0219,0.0236,0.0235,0.0234,0.0234,0,0,0.0458,0.0467,0.0468,0.048,0.0464,0.0464,0.0472,0.0471,0.0487,0.0451,0.0464,0.0423,0.0398,0.0386,0.0351,0.0329,0.0309,0.0294,0.0292,0.0276,0.0253,0.0245,0.0241,0.0285,0.0284,0.0284,0.0231,0,0.0485,0.0514,0.0508,0.0533,0.0546,0.0528,0.0543,0.0537,0.0527,0.053,0.0489,0.048,0.043,0.0421,0.0392,0.0332,0.0305,0.0326,0.0238,0.0236,0.023,0.0239,0.026,0.0214,0.0228,0.0228,0.0227,0,0.0518,0.0533,0.057,0.0591,0.0597,0.0608,0.0633,0.0641,0.0635,0.0627,0.0605,0.0565,0.0532,0.0483,0.0395,0.0409,0.0339,0.0286,0.0282,0.0262,0.0224,0.0201,0.0209,0.0223,0.0223,0.0224,0.0224,0,0.0555,0.0577,0.0615,0.062,0.0638,0.0658,0.0669,0.0674,0.0698,0.0688,0.0699,0.064,0.0623,0.0528,0.0417,0.0404,0.0316,0.0283,0.0209,0.0207,0.0203,0.0201,0.0219,0.0219,0.0219,0.0219,0.0219,0,0.0591,0.0616,0.064,0.066,0.0712,0.0706,0.076,0.0763,0.078,0.0822,0.0754,0.077,0.0632,0.0563,0.0446,0.0329,0.0337,0.0223,0.0196,0.0217,0.0218,0.0209,0.0209,0.0217,0.0218,0.0218,0.0218,0,0.0622,0.0638,0.0683,0.0717,0.0734,0.0772,0.0822,0.086,0.0868,0.092,0.0919,0.0868,0.0783,0.064,0.0491,0.0382,0.0258,0.021,0.0246,0.0225,0.0155,0.0158,0.0124,0.0124,0.0123,0.0123,0.0122,0,0.0641,0.067,0.073,0.0764,0.0783,0.0838,0.0881,0.0905,0.0951,0.0988,0.1021,0.0956,0.0929,0.0709,0.0505,0.0306,0.0267,0.0181,0.0159,0.017,0.0147,0.0151,0.0154,0.0164,0.0164,0.0164,0.0164,0,0.0674,0.0699,0.0738,0.0815,0.0869,0.0933,0.0996,0.1048,0.1091,0.1139,0.1186,0.1166,0.0973,0.0785,0.0511,0.0368,0.0214,0.0175,0.0179,0.0189,0.0204,0.0183,0.0185,0.0163,0.0163,0.0163,0.0163,0.0163,0.0702,0.0734,0.0793,0.0862,0.0932,0.1019,0.108,0.1155,0.1245,0.1314,0.1301,0.1274,0.1063,0.0719,0.0485,0.0225,0.0235,0.0129,0.013,0.0131,0.015,0.0164,0.0119,0.0119,0.0118,0.0118,0.0118,0,0.0731,0.0768,0.0832,0.092,0.0997,0.1031,0.115,0.1215,0.1329,0.1383,0.1417,0.1213,0.1012,0.0756,0.0392,0.0177,0.015,0.0088,0.0111,0.0113,0.0114,0.0133,0.0096,0.0096,0.0095,0.0094,0,0,0.0746,0.0804,0.0831,0.0952,0.1018,0.1126,0.1197,0.1301,0.1372,0.1422,0.1404,0.137,0.1085,0.0815,0.0526,0.0316,0.0256,0.026,0.0301,0.0365,0.0369,0.0163,0.0197,0,0,0,0,0]}],[{"header":{"parameterUnit":"m.s-1","parameterCategory":2,"la1":30.2991,"la2":30.254,"lo1":-89.0895,"lo2":-89.0444,"dy":0.0017,"dx":0.0017,"nx":28,"ny":28,"refTime":"2023-10-27T09:00:00:Z","depth":"4","parameterNumber":2,"parameterNumberName":"U-component_of_CURRENTS"},"data":[0,0,0,0,0,0,0,0,0,0,0,0,0,0,0,0,0,0,0,0,0,0,0,0,0,0,0,0,0,0,0,0,0,0,0,0,0,0,0,0,0,0,0,0,0,0,0,0,0,0,0,0,0,0,0,0,0,0,0.1609,0.161,0,0.1635,0.1635,0.1635,0.166,0.166,0.1661,0.1662,0.1646,0.1644,0.1643,0,0,0,0,0,0,0,0,0,0,0,0,0,0.1509,0.1511,0.1609,0.161,0.1611,0.1635,0.1635,0.1635,0.1659,0.166,0.1662,0.1662,0.1646,0.1645,0.1643,0,0,0,0,0,0,0,0,0,0,0,0,0,0.154,0.1511,0.1609,0.163,0.1633,0.1635,0.1635,0.1635,0.1659,0.1661,0.1662,0.1663,0.1647,0.1645,0.1643,0.1606,0,0,0.1637,0.1637,0,0,0,0,0,0,0,0,0.1538,0.1543,0.1626,0.1629,0.1632,0.1651,0.1594,0.1625,0.1659,0.1643,0.1662,0.1664,0.1646,0.1644,0.1639,0.1605,0.1605,0.1637,0.1636,0.1635,0.1635,0,0,0,0,0,0,0,0.1536,0.1542,0.1613,0.1627,0.1631,0.1615,0.162,0.16,0.1632,0.1644,0.1648,0.166,0.1647,0.1641,0.1639,0.1605,0.1637,0.1636,0.1634,0.1634,0.167,0.1672,0,0,0,0,0,0,0.1547,0.154,0.1613,0.1615,0.1594,0.1616,0.1622,0.1638,0.1633,0.1636,0.1659,0.1661,0.1643,0.1641,0.1638,0.1688,0.1635,0.1634,0.1632,0.1668,0.167,0.1673,0,0,0,0,0,0,0.1545,0.1554,0.1612,0.1582,0.1589,0.1618,0.1635,0.1639,0.1669,0.1645,0.1646,0.1691,0.1644,0.1641,0.166,0.1684,0.1633,0.1631,0.1666,0.1669,0.1672,0.1727,0,0,0,0,0,0,0.1542,0.1553,0.1579,0.1583,0.1592,0.1637,0.1634,0.1638,0.1675,0.1679,0.1672,0.167,0.1645,0.1663,0.1658,0.168,0.163,0.1663,0.1667,0.1671,0.1722,0.1731,0.1739,0,0,0,0,0,0.1538,0.1563,0.158,0.159,0.1623,0.1638,0.1641,0.166,0.1676,0.1691,0.1698,0.1672,0.1685,0.1663,0.1657,0.1679,0.1661,0.1666,0.167,0.1719,0.173,0.1739,0,0,0,0,0,0,0.1526,0.1568,0.1587,0.1623,0.1644,0.1645,0.1672,0.168,0.1696,0.1716,0.1688,0.1686,0.1715,0.1695,0.1672,0.1706,0.1672,0.1676,0.1712,0.1721,0.173,0.1734,0.1628,0,0,0,0,0,0.1539,0.1576,0.1601,0.1633,0.1654,0.167,0.1685,0.1701,0.1712,0.1722,0.1718,0.1721,0.1721,0.1723,0.1719,0.1727,0.1724,0.1744,0.1752,0.1759,0.1763,0.1787,0.1797,0.1688,0.1688,0.1688,0,0,0.1541,0.1573,0.1592,0.1635,0.1659,0.1683,0.1682,0.1723,0.174,0.1716,0.1748,0.1751,0.1734,0.1751,0.1762,0.174,0.1793,0.1765,0.1771,0.177,0.1793,0.1803,0.1813,0.1691,0.1691,0.169,0,0,0.1556,0.16,0.1635,0.1661,0.1714,0.1719,0.1741,0.1767,0.1784,0.181,0.1805,0.1828,0.1823,0.1815,0.1808,0.1862,0.1841,0.187,0.1905,0.193,0.1938,0.1946,0.1965,0.1974,0.1869,0.1869,0.1869,0,0.1561,0.1609,0.1644,0.1683,0.1712,0.1741,0.1774,0.1786,0.1812,0.1831,0.1837,0.1863,0.185,0.1863,0.1886,0.1878,0.1891,0.1862,0.1939,0.1946,0.1953,0.1971,0.198,0.1872,0.1872,0.1872,0.1871,0,0.1587,0.1643,0.1669,0.1729,0.1756,0.1796,0.1822,0.1853,0.1883,0.1894,0.1939,0.1931,0.1948,0.195,0.1929,0.1972,0.1967,0.1948,0.1907,0.1967,0.1983,0.1991,0.1877,0.1876,0.1875,0.1874,0,0,0.1554,0.1667,0.168,0.1722,0.1792,0.1809,0.1855,0.1893,0.1924,0.196,0.1995,0.2009,0.2028,0.2023,0.2011,0.2024,0.2082,0.2012,0.2012,0.2022,0.2144,0.2007,0.2003,0.2081,0.2083,0.2084,0.2139,0,0.157,0.1652,0.17,0.1768,0.1812,0.186,0.189,0.1931,0.1965,0.2002,0.2023,0.2055,0.2047,0.2066,0.2084,0.2085,0.2106,0.2069,0.2094,0.2095,0.1956,0.2008,0.2089,0.2145,0.2147,0.2148,0.2149,0,0.1568,0.1634,0.1713,0.1804,0.1827,0.1866,0.1932,0.1964,0.2021,0.2052,0.2102,0.2118,0.2159,0.2137,0.2186,0.2169,0.2169,0.2162,0.2164,0.2018,0.1972,0.2073,0.2164,0.2163,0.2162,0.2161,0.216,0,0.1517,0.1631,0.1699,0.1733,0.1836,0.1881,0.1929,0.1991,0.2023,0.2095,0.2134,0.2183,0.2221,0.2238,0.2247,0.2229,0.2287,0.2255,0.2132,0.2123,0.2204,0.2195,0.2287,0.2287,0.2287,0.2286,0.2286,0,0.1495,0.1552,0.1692,0.173,0.1802,0.1877,0.1942,0.1993,0.2064,0.2099,0.2168,0.2194,0.2253,0.2288,0.2279,0.2237,0.2325,0.2144,0.2127,0.2228,0.2222,0.221,0.22,0.2288,0.2288,0.2288,0.2287,0,0.1423,0.152,0.161,0.1745,0.1788,0.184,0.1952,0.1981,0.2072,0.2122,0.2152,0.2233,0.2276,0.2314,0.234,0.2266,0.2239,0.2201,0.2325,0.2313,0.2051,0.2044,0.206,0.2055,0.2052,0.2049,0.2046,0,0.139,0.1437,0.1606,0.1662,0.1735,0.1826,0.1873,0.1974,0.2001,0.2119,0.2125,0.2213,0.2249,0.2185,0.2236,0.2218,0.2183,0.2158,0.208,0.2046,0.2028,0.2027,0.2025,0.204,0.2039,0.2038,0.2037,0,0.1331,0.1413,0.1492,0.1612,0.1692,0.175,0.1832,0.184,0.194,0.2042,0.2037,0.2041,0.2083,0.2089,0.21,0.2077,0.2163,0.2118,0.2124,0.2051,0.2022,0.2008,0.201,0.2024,0.2026,0.2027,0.2028,0,0.1291,0.1332,0.1453,0.154,0.1629,0.1649,0.1703,0.1731,0.177,0.1891,0.1888,0.1973,0.2063,0.2018,0.2024,0.1998,0.195,0.1862,0.1881,0.1896,0.1813,0.1751,0.1659,0,0,0,0,0,0.1241,0.1283,0.1364,0.1449,0.1522,0.1571,0.1658,0.1705,0.1804,0.1751,0.1809,0.183,0.1824,0.187,0.1806,0.1956,0.1969,0.1872,0.1882,0.1952,0.1967,0.1882,0,0,0,0,0,0,0.1214,0.1293,0.1336,0.1347,0.1373,0.1429,0.148,0.155,0.1523,0.1632,0.164,0.1714,0.1744,0.1841,0.177,0.1783,0.1748,0.1928,0.1922,0.1944,0.1957,0.1969,0.1887,0,0,0,0,0]},{"header":{"parameterUnit":"m.s-1","parameterCategory":2,"la1":30.2991,"la2":30.254,"lo1":-89.0895,"lo2":-89.0444,"dy":0.0017,"dx":0.0017,"nx":28,"ny":28,"refTime":"2023-10-27T09:00:00:Z","depth":"4","parameterNumber":3,"parameterNumberName":"V-component_of_CURRENTS"},"data":[0,0,0,0,0,0,0,0,0,0,0,0,0,0,0,0,0,0,0,0,0,0,0,0,0,0,0,0,0,0,0,0,0,0,0,0,0,0,0,0,0,0,0,0,0,0,0,0,0,0,0,0,0,0,0,0,0,0,0.0292,0.0291,0,0.0261,0.0261,0.026,0.0254,0.0254,0.0255,0.0255,0.0261,0.0261,0.0261,0,0,0,0,0,0,0,0,0,0,0,0,0,0.0307,0.0307,0.0292,0.0291,0.0291,0.0261,0.0261,0.026,0.0254,0.0254,0.0255,0.0255,0.0261,0.0261,0.0261,0,0,0,0,0,0,0,0,0,0,0,0,0,0.0292,0.0307,0.0292,0.0283,0.0282,0.0261,0.0261,0.026,0.0254,0.0254,0.0255,0.0255,0.0261,0.0261,0.0261,0.0257,0,0,0.0262,0.0262,0,0,0,0,0,0,0,0,0.0293,0.0291,0.0285,0.0284,0.0283,0.0261,0.0268,0.0261,0.0254,0.0266,0.0255,0.0255,0.0264,0.0264,0.0258,0.0257,0.0258,0.0262,0.0262,0.0262,0.0262,0,0,0,0,0,0,0,0.0294,0.0292,0.028,0.0285,0.0283,0.0268,0.0267,0.0267,0.0265,0.0265,0.0264,0.0259,0.0264,0.0258,0.0258,0.0258,0.0262,0.0262,0.0262,0.0262,0.0265,0.0265,0,0,0,0,0,0,0.0297,0.0293,0.0281,0.0279,0.0287,0.0268,0.0266,0.0268,0.0265,0.0264,0.0259,0.0259,0.0258,0.0258,0.0259,0.0276,0.0262,0.0262,0.0262,0.0265,0.0265,0.0265,0,0,0,0,0,0,0.0298,0.0297,0.0283,0.0284,0.0282,0.0267,0.027,0.0268,0.0269,0.0259,0.026,0.0263,0.0258,0.0259,0.0265,0.0275,0.0262,0.0262,0.0265,0.0265,0.0265,0.0296,0,0,0,0,0,0,0.0299,0.0298,0.0304,0.0285,0.0282,0.0277,0.0269,0.0267,0.0264,0.0264,0.0263,0.0263,0.0258,0.0265,0.0265,0.0275,0.0262,0.0265,0.0265,0.0265,0.0295,0.0297,0.0299,0,0,0,0,0,0.0299,0.0308,0.0305,0.0303,0.029,0.0277,0.0275,0.0265,0.0264,0.0267,0.0266,0.0263,0.0266,0.0265,0.0265,0.0276,0.0265,0.0265,0.0265,0.0294,0.0297,0.0299,0,0,0,0,0,0,0.0317,0.0308,0.0303,0.0309,0.0297,0.0276,0.0278,0.027,0.0269,0.0273,0.0266,0.0267,0.0275,0.0269,0.0269,0.0275,0.0264,0.0264,0.0286,0.0288,0.029,0.03,0.0262,0,0,0,0,0,0.0323,0.033,0.0313,0.0318,0.0314,0.0297,0.0292,0.0285,0.0278,0.0278,0.0276,0.0274,0.0274,0.0277,0.0274,0.028,0.0261,0.0285,0.0287,0.0289,0.0296,0.0268,0.0269,0.0266,0.0266,0.0266,0,0,0.0331,0.0327,0.0331,0.0322,0.0313,0.0312,0.0295,0.0291,0.0296,0.028,0.0292,0.0283,0.0276,0.0282,0.0285,0.0281,0.0278,0.0289,0.0291,0.0297,0.0269,0.0269,0.0269,0.0266,0.0266,0.0266,0,0,0.0346,0.0347,0.0356,0.0349,0.0337,0.0328,0.0329,0.0314,0.0315,0.0319,0.0308,0.0305,0.0307,0.0301,0.0299,0.031,0.0289,0.0309,0.0331,0.0304,0.0304,0.0304,0.0275,0.0272,0.0312,0.0312,0.0312,0,0.0354,0.0366,0.0355,0.0358,0.0359,0.0338,0.0346,0.0341,0.0331,0.0337,0.0329,0.0324,0.0316,0.0321,0.0324,0.0316,0.0296,0.0324,0.0307,0.0307,0.0306,0.0276,0.0273,0.0313,0.0313,0.0313,0.0313,0,0.0374,0.0383,0.0387,0.039,0.0388,0.0392,0.0382,0.0386,0.0383,0.0376,0.0381,0.0363,0.036,0.0353,0.0344,0.0339,0.0323,0.0312,0.0303,0.0308,0.0276,0.0272,0.0315,0.0315,0.0314,0.0314,0,0,0.039,0.0401,0.0403,0.0415,0.0408,0.0411,0.0422,0.0427,0.0443,0.0426,0.044,0.0425,0.041,0.0406,0.0387,0.0362,0.0335,0.0339,0.0337,0.0313,0.0272,0.0263,0.0257,0.0319,0.0319,0.0319,0.025,0,0.0408,0.0432,0.043,0.0455,0.0466,0.0459,0.0476,0.0478,0.0476,0.0484,0.0458,0.0463,0.0431,0.0432,0.0402,0.0357,0.0326,0.0354,0.0268,0.0265,0.0259,0.0253,0.0317,0.0247,0.0246,0.0245,0.0244,0,0.0428,0.0443,0.0474,0.05,0.0505,0.052,0.0548,0.0559,0.0559,0.0558,0.0546,0.0522,0.0494,0.0462,0.0381,0.04,0.034,0.0296,0.0292,0.0273,0.0249,0.024,0.0236,0.0237,0.0237,0.0238,0.0238,0,0.0451,0.0474,0.0508,0.0515,0.0537,0.0561,0.0576,0.0587,0.061,0.0606,0.0616,0.057,0.0557,0.0475,0.0384,0.0381,0.0286,0.0269,0.0201,0.0199,0.0214,0.0215,0.0203,0.0203,0.0204,0.0204,0.0204,0,0.0471,0.0496,0.0528,0.0546,0.0595,0.0598,0.0649,0.0657,0.0675,0.0706,0.0661,0.0666,0.056,0.0494,0.0398,0.029,0.0293,0.0204,0.0182,0.0228,0.0231,0.021,0.0212,0.0201,0.0202,0.0202,0.0203,0,0.0485,0.0506,0.0549,0.0589,0.061,0.0646,0.0701,0.0733,0.0746,0.0782,0.0784,0.0738,0.0655,0.0538,0.0406,0.0319,0.0208,0.0166,0.0225,0.0207,0.0133,0.0137,0.0082,0.0081,0.008,0.008,0.0079,0,0.0493,0.0519,0.0585,0.0619,0.0642,0.0698,0.0739,0.077,0.0802,0.0827,0.0843,0.0783,0.0734,0.0541,0.0414,0.0225,0.0196,0.0128,0.0126,0.0137,0.0121,0.0126,0.0131,0.0078,0.0078,0.0078,0.0078,0,0.0505,0.0537,0.0572,0.0646,0.0701,0.076,0.0818,0.0848,0.0885,0.0899,0.0885,0.0793,0.07,0.0546,0.0401,0.0265,0.0166,0.012,0.012,0.0117,0.0132,0.0117,0.0123,0.0075,0.0076,0.0076,0.0076,0,0.0518,0.0544,0.0601,0.0662,0.0736,0.0799,0.0831,0.0867,0.0901,0.0921,0.0916,0.0818,0.0763,0.0567,0.0436,0.0301,0.0261,0.02,0.0195,0.0196,0.0248,0.0284,0.0256,0,0,0,0,0,0.0523,0.0551,0.0608,0.0678,0.0753,0.0796,0.0873,0.0898,0.0937,0.0929,0.0923,0.0834,0.0651,0.0578,0.044,0.0413,0.0232,0.0246,0.0159,0.0061,0.0064,0.0104,0,0,0,0,0,0,0.0525,0.0577,0.06,0.0681,0.0729,0.0811,0.0863,0.0891,0.0885,0.0904,0.0811,0.0779,0.0603,0.0724,0.043,0.0393,0.0313,0.0168,0.0164,0.006,0.0062,0.0065,0.0107,0,0,0,0,0]}]]